UAE792 OMDB-LKPR

Flight info

Callsign UAE792
Flight time 5h 46m
Altitude 36000
Route RIDAP M557 TUMAK L602 GADSI M860 SEPTU DCT VUSEB M860 NINVA UM860 EBEDI/N0482F380 UM860 ODALI UL852 NEGEM T746 ARGES DCT BUDOP DCT ERGOM DCT LALES DCT TUMKA DCT VLM
Aircraft B77W/H-SDE1E2E3FGHIJ2J3J4J5M1RWXY/LB1D1

Departure

Time 2026-04-21 14:23
Airport Dubai International Airport (OMDB)

Arrival

Time 2026-04-21 20:10
Airport Václav Havel Airport Prague (LKPR)
Time Latitude Longitude Altitude Speed Heading
2026-04-21 13:39 25.24434 55.37218 48 ft 0 kts 212°
2026-04-21 14:14 25.24435 55.37218 48 ft 0 kts 212°
2026-04-21 14:14 25.24435 55.37219 48 ft 1 kts 212°
2026-04-21 14:14 25.24448 55.37227 49 ft 2 kts 212°
2026-04-21 14:15 25.24461 55.37236 50 ft 2 kts 212°
2026-04-21 14:15 25.24474 55.37245 51 ft 2 kts 212°
2026-04-21 14:15 25.24482 55.37250 52 ft 1 kts 212°
2026-04-21 14:15 25.24495 55.37257 53 ft 2 kts 192°
2026-04-21 14:16 25.24509 55.37258 53 ft 2 kts 169°
2026-04-21 14:16 25.24523 55.37252 54 ft 2 kts 148°
2026-04-21 14:16 25.24535 55.37242 53 ft 2 kts 127°
2026-04-21 14:16 25.24538 55.37236 53 ft 0 kts 121°
2026-04-21 14:18 25.24533 55.37246 53 ft 3 kts 121°
2026-04-21 14:19 25.24515 55.37277 55 ft 6 kts 121°
2026-04-21 14:19 25.24487 55.37328 56 ft 9 kts 121°
2026-04-21 14:19 25.24442 55.37418 54 ft 16 kts 111°
2026-04-21 14:19 25.24429 55.37563 52 ft 20 kts 92°
2026-04-21 14:20 25.24393 55.37680 51 ft 4 kts 118°
2026-04-21 14:20 25.24384 55.37712 53 ft 4 kts 87°
2026-04-21 14:20 25.24395 55.37740 55 ft 4 kts 51°
2026-04-21 14:20 25.24423 55.37766 56 ft 7 kts 38°
2026-04-21 14:21 25.24484 55.37815 57 ft 13 kts 34°
2026-04-21 14:21 25.24576 55.37884 56 ft 18 kts 34°
2026-04-21 14:21 25.24685 55.37964 57 ft 18 kts 32°
2026-04-21 14:21 25.24774 55.38024 58 ft 9 kts 30°
2026-04-21 14:22 25.24823 55.38000 58 ft 9 kts 302°
2026-04-21 14:22 25.24832 55.37984 57 ft 0 kts 301°
2026-04-21 14:22 25.24861 55.37931 56 ft 33 kts 301°
2026-04-21 14:22 25.25126 55.37458 52 ft 108 kts 301°
2026-04-21 14:23 25.25633 55.36538 51 ft 170 kts 303°
2026-04-21 14:23 25.26288 55.35376 582 ft 181 kts 303°
2026-04-21 14:23 25.26959 55.34169 1268 ft 192 kts 303°
2026-04-21 14:23 25.27655 55.32934 1818 ft 195 kts 303°
2026-04-21 14:24 25.28396 55.31593 2126 ft 211 kts 303°
2026-04-21 14:24 25.29190 55.30141 2446 ft 229 kts 302°
2026-04-21 14:24 25.30050 55.28585 2820 ft 245 kts 305°
2026-04-21 14:24 25.31086 55.27001 3205 ft 258 kts 307°
2026-04-21 14:25 25.32147 55.25381 3616 ft 268 kts 306°
2026-04-21 14:25 25.33223 55.23703 4433 ft 266 kts 305°
2026-04-21 14:25 25.34286 55.22032 5166 ft 267 kts 305°
2026-04-21 14:25 25.35298 55.20347 5880 ft 268 kts 295°
2026-04-21 14:26 25.35759 55.18354 6556 ft 270 kts 274°
2026-04-21 14:26 25.35761 55.16266 7248 ft 272 kts 269°
2026-04-21 14:26 25.35689 55.14204 7931 ft 273 kts 268°
2026-04-21 14:26 25.35608 55.12080 8546 ft 277 kts 268°
2026-04-21 14:27 25.35530 55.09952 9233 ft 278 kts 268°
2026-04-21 14:27 25.35454 55.07840 9858 ft 280 kts 268°
2026-04-21 14:27 25.35375 55.05653 10388 ft 289 kts 267°
2026-04-21 14:27 25.35293 55.03390 10717 ft 305 kts 267°
2026-04-21 14:28 25.35206 55.00981 11057 ft 321 kts 267°
2026-04-21 14:28 25.35113 54.98446 11407 ft 337 kts 267°
2026-04-21 14:28 25.35016 54.95820 11810 ft 352 kts 267°
2026-04-21 14:28 25.34922 54.93036 12218 ft 367 kts 269°
2026-04-21 14:29 25.35142 54.90197 12702 ft 380 kts 279°
2026-04-21 14:29 25.35820 54.87375 13436 ft 386 kts 285°
2026-04-21 14:29 25.36631 54.84530 14320 ft 388 kts 286°
2026-04-21 14:29 25.37449 54.81683 15293 ft 389 kts 286°
2026-04-21 14:30 25.38258 54.78865 16192 ft 392 kts 287°
2026-04-21 14:30 25.39082 54.75989 17088 ft 394 kts 287°
2026-04-21 14:30 25.39908 54.73101 17920 ft 398 kts 287°
2026-04-21 14:30 25.40739 54.70189 18670 ft 403 kts 287°
2026-04-21 14:31 25.41595 54.67187 19386 ft 409 kts 286°
2026-04-21 14:31 25.42450 54.64184 20167 ft 413 kts 286°
2026-04-21 14:31 25.43307 54.61174 20911 ft 417 kts 287°
2026-04-21 14:31 25.44214 54.58092 21618 ft 422 kts 287°
2026-04-21 14:32 25.45138 54.54980 22284 ft 428 kts 287°
2026-04-21 14:32 25.46077 54.51815 22963 ft 432 kts 287°
2026-04-21 14:32 25.47012 54.48658 23666 ft 436 kts 286°
2026-04-21 14:32 25.47959 54.45454 24271 ft 441 kts 287°
2026-04-21 14:33 25.48916 54.42214 24807 ft 448 kts 287°
2026-04-21 14:33 25.49884 54.38934 25504 ft 451 kts 287°
2026-04-21 14:33 25.50856 54.35634 26176 ft 454 kts 286°
2026-04-21 14:33 25.51839 54.32295 26799 ft 458 kts 286°
2026-04-21 14:34 25.52821 54.28955 27400 ft 463 kts 286°
2026-04-21 14:34 25.53817 54.25563 27950 ft 468 kts 286°
2026-04-21 14:34 25.54830 54.22111 28472 ft 473 kts 286°
2026-04-21 14:34 25.55854 54.18623 29066 ft 477 kts 286°
2026-04-21 14:35 25.56880 54.15128 29744 ft 479 kts 285°
2026-04-21 14:35 25.57909 54.11617 30563 ft 477 kts 285°
2026-04-21 14:35 25.58918 54.08173 31516 ft 472 kts 286°
2026-04-21 14:35 25.59919 54.04732 32513 ft 465 kts 285°
2026-04-21 14:36 25.60880 54.01368 33475 ft 458 kts 285°
2026-04-21 14:36 25.61823 53.98056 34204 ft 453 kts 286°
2026-04-21 14:36 25.62742 53.94827 35010 ft 445 kts 286°
2026-04-21 14:36 25.63679 53.91532 35636 ft 438 kts 286°
2026-04-21 14:37 25.64583 53.88353 35761 ft 434 kts 286°
2026-04-21 14:37 25.66416 53.81897 35784 ft 432 kts 286°
2026-04-21 14:38 25.68225 53.75516 35784 ft 431 kts 286°
2026-04-21 14:38 25.70017 53.69171 35785 ft 429 kts 286°
2026-04-21 14:39 25.71792 53.62857 35783 ft 429 kts 286°
2026-04-21 14:39 25.73561 53.56547 35782 ft 430 kts 286°
2026-04-21 14:40 25.75339 53.50205 35781 ft 428 kts 286°
2026-04-21 14:40 25.77114 53.43881 35779 ft 429 kts 286°
2026-04-21 14:41 25.78889 53.37552 35781 ft 430 kts 286°
2026-04-21 14:41 25.80651 53.31255 35793 ft 428 kts 286°
2026-04-21 14:42 25.82414 53.24943 35797 ft 426 kts 286°
2026-04-21 14:42 25.84192 53.18687 35787 ft 426 kts 289°
2026-04-21 14:43 25.86582 53.12667 35788 ft 428 kts 292°
2026-04-21 14:43 25.89041 53.06642 35780 ft 427 kts 292°
2026-04-21 14:44 25.91488 53.00632 35782 ft 428 kts 292°
2026-04-21 14:44 25.93936 52.94606 35781 ft 425 kts 292°
2026-04-21 14:45 25.96358 52.88631 35782 ft 427 kts 292°
2026-04-21 14:45 25.98803 52.82592 35780 ft 427 kts 292°
2026-04-21 14:46 26.01247 52.76546 35775 ft 427 kts 292°
2026-04-21 14:46 26.03781 52.70636 35782 ft 426 kts 294°
2026-04-21 14:47 26.06459 52.64747 35784 ft 426 kts 294°
2026-04-21 14:47 26.09127 52.58844 35785 ft 423 kts 294°
2026-04-21 14:48 26.11774 52.52966 35791 ft 426 kts 294°
2026-04-21 14:48 26.14416 52.47119 35794 ft 424 kts 294°
2026-04-21 14:49 26.17080 52.41209 35788 ft 426 kts 294°
2026-04-21 14:49 26.19717 52.35352 35795 ft 425 kts 294°
2026-04-21 14:50 26.21920 52.30452 35806 ft 421 kts 294°
2026-04-21 14:50 26.24923 52.23544 35810 ft 426 kts 292°
2026-04-21 14:51 26.27475 52.17638 35810 ft 421 kts 293°
2026-04-21 14:51 26.30010 52.11766 35813 ft 424 kts 292°
2026-04-21 14:52 26.32552 52.05876 35803 ft 423 kts 293°
2026-04-21 14:52 26.35100 51.99977 35814 ft 422 kts 293°
2026-04-21 14:53 26.37610 51.94056 35800 ft 422 kts 290°
2026-04-21 14:53 26.39687 51.87948 35810 ft 420 kts 289°
2026-04-21 14:54 26.41735 51.81838 35811 ft 420 kts 288°
2026-04-21 14:54 26.43775 51.75748 35809 ft 421 kts 289°
2026-04-21 14:55 26.45821 51.69636 35809 ft 419 kts 288°
2026-04-21 14:55 26.47865 51.63520 35804 ft 421 kts 289°
2026-04-21 14:56 26.49896 51.57424 35804 ft 419 kts 288°
2026-04-21 14:56 26.51929 51.51311 35803 ft 420 kts 288°
2026-04-21 14:57 26.53972 51.45159 35804 ft 421 kts 289°
2026-04-21 14:57 26.55991 51.39068 35807 ft 419 kts 289°
2026-04-21 14:58 26.58016 51.32952 35821 ft 419 kts 288°
2026-04-21 14:58 26.60027 51.26873 35829 ft 417 kts 288°
2026-04-21 14:59 26.62057 51.20744 35835 ft 421 kts 288°
2026-04-21 14:59 26.64082 51.14623 35843 ft 419 kts 288°
2026-04-21 15:00 26.66093 51.08532 35848 ft 418 kts 289°
2026-04-21 15:00 26.68111 51.02408 35844 ft 418 kts 288°
2026-04-21 15:01 26.70078 50.96332 35858 ft 418 kts 288°
2026-04-21 15:01 26.72043 50.90184 35845 ft 417 kts 288°
2026-04-21 15:02 26.73992 50.84082 35837 ft 416 kts 288°
2026-04-21 15:02 26.75942 50.77967 35843 ft 417 kts 288°
2026-04-21 15:03 26.77877 50.71896 35841 ft 415 kts 287°
2026-04-21 15:03 26.80017 50.65824 35842 ft 419 kts 295°
2026-04-21 15:04 26.83430 50.60516 35851 ft 423 kts 304°
2026-04-21 15:04 26.87175 50.55390 35834 ft 424 kts 304°
2026-04-21 15:05 26.90908 50.50271 35836 ft 426 kts 304°
2026-04-21 15:05 26.96919 50.42869 35838 ft 426 kts 308°
2026-04-21 15:06 27.01031 50.38030 35835 ft 432 kts 308°
2026-04-21 15:06 27.05129 50.33181 35853 ft 426 kts 307°
2026-04-21 15:07 27.09210 50.28273 35852 ft 427 kts 307°
2026-04-21 15:07 27.13252 50.23392 35850 ft 427 kts 307°
2026-04-21 15:08 27.17550 50.18764 35856 ft 432 kts 316°
2026-04-21 15:08 27.22424 50.14729 35852 ft 437 kts 316°
2026-04-21 15:09 27.27345 50.10675 35861 ft 435 kts 316°
2026-04-21 15:09 27.32219 50.06651 35861 ft 435 kts 316°
2026-04-21 15:10 27.37098 50.02602 35862 ft 434 kts 315°
2026-04-21 15:10 27.41911 49.98364 35866 ft 437 kts 314°
2026-04-21 15:11 27.46669 49.94165 35866 ft 436 kts 315°
2026-04-21 15:11 27.51464 49.89937 35865 ft 435 kts 315°
2026-04-21 15:12 27.56257 49.85706 35870 ft 439 kts 314°
2026-04-21 15:12 27.61067 49.81460 35873 ft 438 kts 315°
2026-04-21 15:13 27.65868 49.77218 35873 ft 439 kts 315°
2026-04-21 15:13 27.70685 49.72957 35872 ft 440 kts 314°
2026-04-21 15:14 27.75532 49.68666 35858 ft 439 kts 314°
2026-04-21 15:14 27.80353 49.64382 35858 ft 444 kts 314°
2026-04-21 15:15 27.85201 49.60056 35854 ft 440 kts 314°
2026-04-21 15:15 27.89997 49.55769 35854 ft 441 kts 314°
2026-04-21 15:16 27.94845 49.51432 35858 ft 441 kts 314°
2026-04-21 15:16 27.99649 49.47129 35859 ft 442 kts 314°
2026-04-21 15:17 28.04500 49.42767 35858 ft 440 kts 314°
2026-04-21 15:17 28.09292 49.38392 35862 ft 444 kts 314°
2026-04-21 15:18 28.14077 49.34023 35867 ft 440 kts 313°
2026-04-21 15:18 28.18871 49.29639 35872 ft 442 kts 313°
2026-04-21 15:19 28.23651 49.25266 35874 ft 440 kts 313°
2026-04-21 15:19 28.28415 49.20901 35873 ft 440 kts 313°
2026-04-21 15:20 28.33192 49.16519 35883 ft 441 kts 313°
2026-04-21 15:20 28.37986 49.12120 35878 ft 439 kts 313°
2026-04-21 15:21 28.42917 49.07916 35895 ft 447 kts 318°
2026-04-21 15:21 28.48102 49.04025 35888 ft 447 kts 318°
2026-04-21 15:22 28.53333 49.00059 35896 ft 447 kts 318°
2026-04-21 15:22 28.58491 48.96123 35894 ft 448 kts 317°
2026-04-21 15:23 28.63698 48.92131 35884 ft 447 kts 318°
2026-04-21 15:23 28.68867 48.88158 35887 ft 449 kts 317°
2026-04-21 15:24 28.74041 48.84174 35886 ft 446 kts 317°
2026-04-21 15:24 28.79188 48.80204 35884 ft 447 kts 317°
2026-04-21 15:25 28.84328 48.76256 35884 ft 446 kts 318°
2026-04-21 15:25 28.89489 48.72304 35885 ft 447 kts 318°
2026-04-21 15:26 28.92062 48.70333 35718 ft 445 kts 318°
2026-04-21 15:26 28.94627 48.68366 36085 ft 448 kts 318°
2026-04-21 15:26 28.97255 48.66347 35741 ft 447 kts 318°
2026-04-21 15:26 28.99807 48.64388 35894 ft 448 kts 318°
2026-04-21 15:27 29.04996 48.60398 35881 ft 448 kts 317°
2026-04-21 15:27 29.10145 48.56436 35876 ft 445 kts 318°
2026-04-21 15:28 29.15308 48.52454 35876 ft 449 kts 318°
2026-04-21 15:28 29.20499 48.48450 35869 ft 445 kts 317°
2026-04-21 15:29 29.25661 48.44459 35869 ft 446 kts 318°
2026-04-21 15:29 29.30818 48.40470 35866 ft 445 kts 317°
2026-04-21 15:30 29.35955 48.36490 35873 ft 447 kts 318°
2026-04-21 15:30 29.41104 48.32496 35887 ft 446 kts 317°
2026-04-21 15:31 29.46297 48.28632 35890 ft 451 kts 321°
2026-04-21 15:31 29.51788 48.25087 35881 ft 450 kts 322°
2026-04-21 15:32 29.57283 48.21512 35877 ft 452 kts 321°
2026-04-21 15:32 29.62711 48.17958 35875 ft 450 kts 321°
2026-04-21 15:33 29.68163 48.14371 35871 ft 450 kts 321°
2026-04-21 15:33 29.73640 48.10757 35870 ft 451 kts 321°
2026-04-21 15:34 29.79092 48.07155 35860 ft 449 kts 321°
2026-04-21 15:34 29.84546 48.03543 35853 ft 451 kts 321°
2026-04-21 15:35 29.89965 47.99950 35852 ft 451 kts 321°
2026-04-21 15:35 29.95407 47.96337 35851 ft 450 kts 321°
2026-04-21 15:36 30.00807 47.92633 35842 ft 444 kts 315°
2026-04-21 15:36 30.05197 47.87826 35850 ft 431 kts 304°
2026-04-21 15:37 30.09145 47.82583 35841 ft 427 kts 303°
2026-04-21 15:37 30.13062 47.77356 35842 ft 428 kts 303°
2026-04-21 15:38 30.16949 47.72165 35837 ft 427 kts 303°
2026-04-21 15:38 30.20852 47.66942 35835 ft 429 kts 303°
2026-04-21 15:39 30.24756 47.61713 35839 ft 429 kts 303°
2026-04-21 15:39 30.28641 47.56502 35836 ft 427 kts 303°
2026-04-21 15:40 30.32537 47.51271 35836 ft 425 kts 304°
2026-04-21 15:40 30.36380 47.46101 35832 ft 426 kts 303°
2026-04-21 15:41 30.40251 47.40889 35839 ft 426 kts 303°
2026-04-21 15:41 30.44130 47.35656 35835 ft 427 kts 303°
2026-04-21 15:42 30.48008 47.30418 35858 ft 427 kts 303°
2026-04-21 15:42 30.51879 47.25186 35857 ft 426 kts 303°
2026-04-21 15:43 30.55732 47.19978 35854 ft 428 kts 304°
2026-04-21 15:43 30.60267 47.15335 35853 ft 436 kts 313°
2026-04-21 15:44 30.65024 47.10911 35851 ft 439 kts 313°
2026-04-21 15:44 30.69786 47.06473 35853 ft 438 kts 313°
2026-04-21 15:45 30.74553 47.02019 35850 ft 437 kts 313°
2026-04-21 15:45 30.79304 46.97570 35837 ft 440 kts 312°
2026-04-21 15:46 30.84086 46.93087 35825 ft 438 kts 312°
2026-04-21 15:46 30.88815 46.88647 35825 ft 438 kts 312°
2026-04-21 15:47 30.93582 46.84163 35822 ft 440 kts 313°
2026-04-21 15:47 30.98337 46.79688 35820 ft 436 kts 312°
2026-04-21 15:48 31.03097 46.75196 35823 ft 441 kts 313°
2026-04-21 15:48 31.07826 46.70735 35825 ft 437 kts 313°
2026-04-21 15:49 31.12576 46.66244 35823 ft 440 kts 313°
2026-04-21 15:49 31.17345 46.61729 35821 ft 438 kts 313°
2026-04-21 15:50 31.22092 46.57229 35826 ft 440 kts 313°
2026-04-21 15:50 31.26830 46.52733 35825 ft 438 kts 313°
2026-04-21 15:51 31.31591 46.48206 35821 ft 441 kts 312°
2026-04-21 15:51 31.36333 46.43694 35824 ft 440 kts 313°
2026-04-21 15:52 31.41099 46.39152 35824 ft 441 kts 313°
2026-04-21 15:52 31.45874 46.34595 35828 ft 441 kts 312°
2026-04-21 15:53 31.50599 46.30081 35841 ft 440 kts 312°
2026-04-21 15:53 31.55355 46.25528 35837 ft 443 kts 312°
2026-04-21 15:54 31.60143 46.20943 35835 ft 440 kts 312°
2026-04-21 15:54 31.64862 46.16414 35833 ft 441 kts 312°
2026-04-21 15:55 31.69623 46.11840 35834 ft 442 kts 312°
2026-04-21 15:55 31.74376 46.07268 35829 ft 440 kts 312°
2026-04-21 15:56 31.79066 46.02661 35828 ft 440 kts 311°
2026-04-21 15:56 31.83740 45.98021 35828 ft 440 kts 311°
2026-04-21 15:57 31.88427 45.93363 35830 ft 440 kts 311°
2026-04-21 15:57 31.93113 45.88702 35838 ft 443 kts 311°
2026-04-21 15:58 31.97774 45.84065 35847 ft 441 kts 311°
2026-04-21 15:58 32.02476 45.79377 35844 ft 442 kts 311°
2026-04-21 15:59 32.07168 45.74696 35852 ft 439 kts 312°
2026-04-21 15:59 32.11832 45.70034 35846 ft 441 kts 311°
2026-04-21 16:00 32.16530 45.65332 35853 ft 443 kts 311°
2026-04-21 16:00 32.21204 45.60649 35854 ft 441 kts 312°
2026-04-21 16:01 32.25904 45.55933 35854 ft 441 kts 312°
2026-04-21 16:01 32.30560 45.51253 35847 ft 442 kts 312°
2026-04-21 16:02 32.35257 45.46526 35851 ft 441 kts 312°
2026-04-21 16:02 32.39898 45.41849 35858 ft 442 kts 312°
2026-04-21 16:03 32.44568 45.37137 35851 ft 442 kts 312°
2026-04-21 16:03 32.49244 45.32412 35872 ft 441 kts 311°
2026-04-21 16:04 32.53907 45.27692 35873 ft 441 kts 311°
2026-04-21 16:04 32.58976 45.23376 35868 ft 449 kts 318°
2026-04-21 16:05 32.64160 45.19282 35872 ft 449 kts 318°
2026-04-21 16:05 32.69347 45.15174 35875 ft 450 kts 318°
2026-04-21 16:06 32.74567 45.11030 35871 ft 449 kts 318°
2026-04-21 16:06 32.79726 45.06927 35864 ft 450 kts 318°
2026-04-21 16:07 32.84918 45.02790 35866 ft 449 kts 318°
2026-04-21 16:07 32.90099 44.98656 35873 ft 450 kts 318°
2026-04-21 16:08 32.97890 44.92427 35875 ft 449 kts 318°
2026-04-21 16:09 33.03103 44.88251 35867 ft 450 kts 318°
2026-04-21 16:09 33.08285 44.84095 35873 ft 450 kts 318°
2026-04-21 16:10 33.13457 44.79940 35875 ft 450 kts 318°
2026-04-21 16:10 33.18662 44.75753 35887 ft 450 kts 319°
2026-04-21 16:11 33.24440 44.72514 35886 ft 472 kts 336°
2026-04-21 16:11 33.30820 44.70602 35893 ft 475 kts 338°
2026-04-21 16:12 33.36191 44.69036 35881 ft 474 kts 338°
2026-04-21 16:12 33.43645 44.66852 35896 ft 470 kts 338°
2026-04-21 16:13 33.50008 44.64975 35894 ft 474 kts 338°
2026-04-21 16:13 33.56408 44.63086 35893 ft 472 kts 338°
2026-04-21 16:14 33.62825 44.61184 35893 ft 474 kts 338°
2026-04-21 16:14 33.69243 44.59280 35895 ft 475 kts 338°
2026-04-21 16:15 33.75642 44.57379 35893 ft 474 kts 338°
2026-04-21 16:15 33.82053 44.55471 35893 ft 473 kts 338°
2026-04-21 16:16 33.88435 44.53567 35891 ft 474 kts 338°
2026-04-21 16:16 33.94833 44.51657 35883 ft 473 kts 338°
2026-04-21 16:17 34.01259 44.49735 35890 ft 474 kts 338°
2026-04-21 16:17 34.07633 44.47826 35886 ft 473 kts 338°
2026-04-21 16:18 34.14083 44.45890 35889 ft 475 kts 338°
2026-04-21 16:18 34.20454 44.43976 35888 ft 474 kts 339°
2026-04-21 16:19 34.26913 44.42031 35888 ft 475 kts 339°
2026-04-21 16:19 34.33331 44.40097 35895 ft 474 kts 339°
2026-04-21 16:20 34.39714 44.38170 35899 ft 474 kts 339°
2026-04-21 16:20 34.46065 44.36249 35895 ft 476 kts 339°
2026-04-21 16:21 34.52486 44.34305 35912 ft 473 kts 338°
2026-04-21 16:21 34.58852 44.32373 35918 ft 475 kts 339°
2026-04-21 16:22 34.65295 44.30416 35916 ft 474 kts 338°
2026-04-21 16:22 34.71690 44.28469 35924 ft 476 kts 339°
2026-04-21 16:23 34.78105 44.26514 35927 ft 475 kts 339°
2026-04-21 16:23 34.84540 44.24549 35928 ft 475 kts 339°
2026-04-21 16:24 34.90950 44.22589 35936 ft 476 kts 339°
2026-04-21 16:24 34.97382 44.20619 35938 ft 475 kts 339°
2026-04-21 16:25 35.03818 44.18645 35940 ft 475 kts 339°
2026-04-21 16:25 35.10218 44.16678 35943 ft 475 kts 339°
2026-04-21 16:26 35.16663 44.14695 35945 ft 475 kts 339°
2026-04-21 16:26 35.23052 44.12724 35949 ft 476 kts 339°
2026-04-21 16:27 35.29493 44.10735 35947 ft 476 kts 339°
2026-04-21 16:27 35.35900 44.08754 35946 ft 477 kts 339°
2026-04-21 16:28 35.42395 44.06742 35937 ft 476 kts 340°
2026-04-21 16:28 35.48780 44.04761 35937 ft 476 kts 340°
2026-04-21 16:29 35.54180 44.03082 35935 ft 477 kts 340°
2026-04-21 16:29 35.61671 44.00751 35933 ft 475 kts 340°
2026-04-21 16:30 35.68119 43.98740 35935 ft 476 kts 340°
2026-04-21 16:30 35.74560 43.96728 35935 ft 476 kts 340°
2026-04-21 16:31 35.80999 43.94713 35934 ft 476 kts 340°
2026-04-21 16:31 35.87416 43.92702 35936 ft 476 kts 340°
2026-04-21 16:32 35.93855 43.90681 35934 ft 476 kts 340°
2026-04-21 16:32 36.00297 43.88654 35935 ft 476 kts 340°
2026-04-21 16:33 36.06710 43.86634 35936 ft 476 kts 340°
2026-04-21 16:33 36.13171 43.84595 35934 ft 476 kts 340°
2026-04-21 16:34 36.19616 43.82558 35951 ft 475 kts 341°
2026-04-21 16:34 36.26025 43.80528 35941 ft 475 kts 340°
2026-04-21 16:35 36.32194 43.77677 35942 ft 469 kts 333°
2026-04-21 16:35 36.38224 43.74554 35939 ft 468 kts 333°
2026-04-21 16:36 36.44259 43.71422 35945 ft 470 kts 333°
2026-04-21 16:36 36.50280 43.68293 35951 ft 469 kts 333°
2026-04-21 16:37 36.56305 43.65157 35947 ft 469 kts 333°
2026-04-21 16:37 36.62350 43.62006 35959 ft 468 kts 333°
2026-04-21 16:38 36.68381 43.58856 35963 ft 468 kts 333°
2026-04-21 16:38 36.74401 43.55707 35970 ft 469 kts 333°
2026-04-21 16:39 36.80326 43.52443 35974 ft 467 kts 332°
2026-04-21 16:39 36.86292 43.49097 35979 ft 466 kts 332°
2026-04-21 16:40 36.92220 43.45773 35985 ft 468 kts 332°
2026-04-21 16:40 36.98155 43.42443 35985 ft 468 kts 332°
2026-04-21 16:41 37.03105 43.39664 35985 ft 467 kts 332°
2026-04-21 16:41 37.10022 43.35774 35991 ft 466 kts 332°
2026-04-21 16:42 37.15947 43.32436 36002 ft 467 kts 332°
2026-04-21 16:42 37.21894 43.29081 36008 ft 466 kts 332°
2026-04-21 16:43 37.27809 43.25738 36019 ft 466 kts 332°
2026-04-21 16:43 37.33304 43.21603 36003 ft 458 kts 316°
2026-04-21 16:44 37.37433 43.15638 36012 ft 453 kts 300°
2026-04-21 16:44 37.40661 43.08857 36013 ft 451 kts 298°
2026-04-21 16:45 37.43847 43.02083 36026 ft 451 kts 298°
2026-04-21 16:45 37.47020 42.95322 36026 ft 450 kts 298°
2026-04-21 16:46 37.50211 42.88508 36033 ft 452 kts 298°
2026-04-21 16:46 37.53400 42.81688 36027 ft 450 kts 298°
2026-04-21 16:47 37.56566 42.74900 36025 ft 451 kts 298°
2026-04-21 16:47 37.59748 42.68063 36021 ft 451 kts 299°
2026-04-21 16:48 37.62900 42.61278 36008 ft 450 kts 299°
2026-04-21 16:48 37.66057 42.54467 36003 ft 450 kts 299°
2026-04-21 16:49 37.69235 42.47597 35986 ft 450 kts 299°
2026-04-21 16:49 37.72388 42.40766 35982 ft 450 kts 299°
2026-04-21 16:50 37.75525 42.33956 35991 ft 450 kts 298°
2026-04-21 16:50 37.78675 42.27103 36006 ft 449 kts 298°
2026-04-21 16:51 37.81827 42.20231 35990 ft 449 kts 298°
2026-04-21 16:51 37.84959 42.13387 35998 ft 451 kts 298°
2026-04-21 16:52 37.88071 42.06573 35989 ft 450 kts 298°
2026-04-21 16:52 37.90680 42.00851 35996 ft 450 kts 298°
2026-04-21 16:52 37.92772 41.96254 35827 ft 452 kts 299°
2026-04-21 16:53 37.94339 41.92807 35954 ft 453 kts 298°
2026-04-21 16:53 37.97477 41.85893 35983 ft 452 kts 298°
2026-04-21 16:54 38.00603 41.78989 35973 ft 451 kts 298°
2026-04-21 16:54 38.03738 41.72052 35973 ft 451 kts 298°
2026-04-21 16:55 38.06844 41.65165 35973 ft 450 kts 298°
2026-04-21 16:55 38.09961 41.58238 35976 ft 450 kts 298°
2026-04-21 16:56 38.13054 41.51349 35982 ft 451 kts 298°
2026-04-21 16:56 38.16159 41.44418 35982 ft 450 kts 298°
2026-04-21 16:57 38.19235 41.37537 35979 ft 451 kts 299°
2026-04-21 16:57 38.22319 41.30624 35983 ft 450 kts 298°
2026-04-21 16:58 38.25408 41.23685 35981 ft 450 kts 298°
2026-04-21 16:58 38.26952 41.20210 36106 ft 451 kts 298°
2026-04-21 16:58 38.28486 41.16754 36002 ft 447 kts 298°
2026-04-21 16:59 38.31527 41.09893 35989 ft 449 kts 298°
2026-04-21 16:59 38.34607 41.02929 35997 ft 448 kts 298°
2026-04-21 17:00 38.37643 40.96047 35991 ft 447 kts 298°
2026-04-21 17:00 38.39170 40.92582 35710 ft 448 kts 298°
2026-04-21 17:00 38.40188 40.90270 35788 ft 446 kts 298°
2026-04-21 17:00 38.42207 40.85678 35983 ft 451 kts 298°
2026-04-21 17:01 38.43740 40.82186 35995 ft 451 kts 298°
2026-04-21 17:01 38.46808 40.75189 35997 ft 449 kts 298°
2026-04-21 17:02 38.49860 40.68211 35994 ft 449 kts 298°
2026-04-21 17:02 38.52900 40.61248 35995 ft 448 kts 298°
2026-04-21 17:03 38.55935 40.54280 35988 ft 449 kts 298°
2026-04-21 17:03 38.58992 40.47243 35996 ft 450 kts 298°
2026-04-21 17:04 38.62015 40.40272 35990 ft 450 kts 298°
2026-04-21 17:04 38.65047 40.33263 35990 ft 449 kts 297°
2026-04-21 17:05 38.68057 40.26290 35994 ft 450 kts 297°
2026-04-21 17:05 38.71090 40.19250 35986 ft 448 kts 297°
2026-04-21 17:06 38.74087 40.12275 35987 ft 449 kts 297°
2026-04-21 17:06 38.77097 40.05255 35990 ft 449 kts 297°
2026-04-21 17:07 38.79591 39.99427 35991 ft 449 kts 297°
2026-04-21 17:07 38.83095 39.91219 35985 ft 449 kts 297°
2026-04-21 17:08 38.86082 39.84206 35984 ft 449 kts 297°
2026-04-21 17:08 38.89080 39.77150 35990 ft 449 kts 297°
2026-04-21 17:09 38.93562 39.66574 35989 ft 448 kts 297°
2026-04-21 17:09 38.96556 39.59490 35990 ft 449 kts 297°
2026-04-21 17:10 38.99515 39.52469 35992 ft 447 kts 297°
2026-04-21 17:10 39.02489 39.45401 35988 ft 448 kts 297°
2026-04-21 17:11 39.05461 39.38319 35980 ft 447 kts 297°
2026-04-21 17:11 39.08413 39.31270 35993 ft 448 kts 296°
2026-04-21 17:12 39.11362 39.24211 35990 ft 446 kts 296°
2026-04-21 17:12 39.14307 39.17144 35995 ft 447 kts 296°
2026-04-21 17:13 39.17251 39.10065 35994 ft 447 kts 296°
2026-04-21 17:13 39.20177 39.03013 36001 ft 447 kts 297°
2026-04-21 17:14 39.23112 38.95924 36008 ft 447 kts 296°
2026-04-21 17:14 39.26049 38.88815 36012 ft 446 kts 297°
2026-04-21 17:15 39.28954 38.81764 36013 ft 447 kts 296°
2026-04-21 17:15 39.31901 38.74594 36404 ft 455 kts 296°
2026-04-21 17:16 39.33368 38.71020 37054 ft 449 kts 296°
2026-04-21 17:16 39.34827 38.67462 37680 ft 443 kts 296°
2026-04-21 17:16 39.36272 38.63934 37989 ft 444 kts 296°
2026-04-21 17:16 39.37726 38.60379 38016 ft 448 kts 296°
2026-04-21 17:17 39.40631 38.53261 38030 ft 445 kts 296°
2026-04-21 17:17 39.43529 38.46149 38024 ft 446 kts 296°
2026-04-21 17:18 39.46416 38.39045 38033 ft 444 kts 296°
2026-04-21 17:18 39.49288 38.31961 38050 ft 447 kts 296°
2026-04-21 17:19 39.52171 38.24833 38050 ft 444 kts 296°
2026-04-21 17:19 39.55036 38.17732 38051 ft 445 kts 296°
2026-04-21 17:20 39.57907 38.10602 38052 ft 445 kts 296°
2026-04-21 17:20 39.60767 38.03482 38051 ft 444 kts 296°
2026-04-21 17:21 39.63610 37.96388 38043 ft 444 kts 296°
2026-04-21 17:21 39.66444 37.89297 38044 ft 444 kts 296°
2026-04-21 17:22 39.69281 37.82185 38039 ft 444 kts 296°
2026-04-21 17:22 39.72107 37.75083 38053 ft 443 kts 296°
2026-04-21 17:23 39.74939 37.67950 38056 ft 443 kts 296°
2026-04-21 17:23 39.77745 37.60863 38046 ft 444 kts 296°
2026-04-21 17:24 39.80570 37.53715 38048 ft 444 kts 296°
2026-04-21 17:24 39.83392 37.46553 38045 ft 442 kts 296°
2026-04-21 17:25 39.86187 37.39446 38040 ft 443 kts 296°
2026-04-21 17:25 39.88981 37.32324 38040 ft 441 kts 296°
2026-04-21 17:26 39.91775 37.25185 38048 ft 443 kts 296°
2026-04-21 17:26 39.94556 37.18062 38044 ft 441 kts 296°
2026-04-21 17:27 39.97340 37.10915 38033 ft 442 kts 295°
2026-04-21 17:27 40.00113 37.03781 38031 ft 441 kts 295°
2026-04-21 17:28 40.02883 36.96634 38028 ft 441 kts 295°
2026-04-21 17:28 40.05640 36.89503 38025 ft 441 kts 296°
2026-04-21 17:29 40.08384 36.82393 38020 ft 439 kts 296°
2026-04-21 17:29 40.11145 36.75216 38021 ft 441 kts 295°
2026-04-21 17:30 40.13895 36.68057 38027 ft 439 kts 296°
2026-04-21 17:30 40.16652 36.60858 38011 ft 441 kts 295°
2026-04-21 17:31 40.19371 36.53743 38019 ft 438 kts 295°
2026-04-21 17:31 40.22096 36.46593 38010 ft 439 kts 295°
2026-04-21 17:32 40.24813 36.39448 38004 ft 439 kts 295°
2026-04-21 17:32 40.27544 36.32250 38017 ft 439 kts 295°
2026-04-21 17:33 40.30247 36.25106 38004 ft 438 kts 295°
2026-04-21 17:33 40.32960 36.17917 38014 ft 438 kts 295°
2026-04-21 17:34 40.35653 36.10766 38000 ft 438 kts 295°
2026-04-21 17:34 40.38347 36.03596 37994 ft 438 kts 295°
2026-04-21 17:35 40.41032 35.96428 38000 ft 437 kts 295°
2026-04-21 17:35 40.43711 35.89263 37985 ft 437 kts 295°
2026-04-21 17:36 40.46384 35.82093 37998 ft 438 kts 295°
2026-04-21 17:36 40.49058 35.74907 37979 ft 438 kts 295°
2026-04-21 17:37 40.51709 35.67762 37989 ft 438 kts 295°
2026-04-21 17:37 40.54364 35.60589 37981 ft 438 kts 295°
2026-04-21 17:38 40.57033 35.53361 37959 ft 438 kts 295°
2026-04-21 17:38 40.59684 35.46164 37964 ft 438 kts 295°
2026-04-21 17:39 40.62342 35.38929 37961 ft 440 kts 295°
2026-04-21 17:39 40.64991 35.31701 37989 ft 438 kts 294°
2026-04-21 17:40 40.67652 35.24421 37962 ft 439 kts 294°
2026-04-21 17:40 40.70293 35.17180 37965 ft 439 kts 294°
2026-04-21 17:41 40.72934 35.09920 37974 ft 439 kts 294°
2026-04-21 17:41 40.75567 35.02665 37972 ft 440 kts 294°
2026-04-21 17:42 40.78189 34.95421 37959 ft 438 kts 294°
2026-04-21 17:42 40.80818 34.88137 37961 ft 440 kts 294°
2026-04-21 17:43 40.83443 34.80846 37964 ft 440 kts 294°
2026-04-21 17:43 40.86074 34.73521 37954 ft 441 kts 294°
2026-04-21 17:44 40.88706 34.66175 37959 ft 441 kts 295°
2026-04-21 17:44 40.91319 34.58865 37951 ft 442 kts 295°
2026-04-21 17:45 40.93940 34.51511 37955 ft 443 kts 295°
2026-04-21 17:45 40.96561 34.44137 37948 ft 442 kts 295°
2026-04-21 17:46 40.99173 34.36773 37952 ft 443 kts 295°
2026-04-21 17:46 41.01793 34.29364 37969 ft 442 kts 294°
2026-04-21 17:47 41.04380 34.22031 37973 ft 443 kts 294°
2026-04-21 17:47 41.06993 34.14605 37970 ft 443 kts 294°
2026-04-21 17:48 41.09589 34.07207 37968 ft 444 kts 294°
2026-04-21 17:48 41.12196 33.99759 37978 ft 444 kts 294°
2026-04-21 17:49 41.14769 33.92386 37980 ft 444 kts 294°
2026-04-21 17:49 41.17371 33.84915 37980 ft 445 kts 294°
2026-04-21 17:50 41.19944 33.77506 37980 ft 443 kts 294°
2026-04-21 17:50 41.22527 33.70046 37974 ft 443 kts 294°
2026-04-21 17:51 41.25104 33.62585 37971 ft 443 kts 294°
2026-04-21 17:51 41.27660 33.55166 37970 ft 442 kts 294°
2026-04-21 17:52 41.30211 33.47742 37967 ft 442 kts 294°
2026-04-21 17:52 41.32748 33.40339 37965 ft 439 kts 294°
2026-04-21 17:53 41.35277 33.32937 37973 ft 440 kts 294°
2026-04-21 17:53 41.37812 33.25500 37971 ft 439 kts 293°
2026-04-21 17:54 41.40328 33.18101 37965 ft 439 kts 294°
2026-04-21 17:54 41.42779 33.10871 37967 ft 440 kts 294°
2026-04-21 17:55 41.45285 33.03460 37965 ft 439 kts 294°
2026-04-21 17:55 41.47789 32.96037 37966 ft 439 kts 294°
2026-04-21 17:56 41.50279 32.88634 37969 ft 438 kts 294°
2026-04-21 17:56 41.52764 32.81227 37970 ft 439 kts 294°
2026-04-21 17:57 41.55243 32.73819 37959 ft 438 kts 294°
2026-04-21 17:57 41.57712 32.66420 37956 ft 437 kts 294°
2026-04-21 17:58 41.60180 32.59005 37955 ft 437 kts 294°
2026-04-21 17:58 41.62635 32.51609 37956 ft 436 kts 294°
2026-04-21 17:59 41.65098 32.44167 37958 ft 437 kts 294°
2026-04-21 17:59 41.67541 32.36769 37950 ft 435 kts 293°
2026-04-21 18:00 41.69984 32.29346 37954 ft 437 kts 293°
2026-04-21 18:00 41.72419 32.21932 37965 ft 437 kts 292°
2026-04-21 18:01 41.74850 32.14507 37962 ft 435 kts 293°
2026-04-21 18:01 41.77288 32.07040 37962 ft 437 kts 293°
2026-04-21 18:02 41.79697 31.99643 37967 ft 435 kts 293°
2026-04-21 18:02 41.82117 31.92191 37978 ft 434 kts 292°
2026-04-21 18:03 41.84515 31.84785 37984 ft 434 kts 292°
2026-04-21 18:03 41.86906 31.77383 37984 ft 434 kts 292°
2026-04-21 18:04 41.89307 31.69931 37993 ft 435 kts 292°
2026-04-21 18:04 41.91688 31.62518 37992 ft 433 kts 292°
2026-04-21 18:05 41.94071 31.55080 37979 ft 433 kts 292°
2026-04-21 18:05 41.96444 31.47650 37984 ft 435 kts 292°
2026-04-21 18:06 41.98817 31.40202 37988 ft 433 kts 292°
2026-04-21 18:06 42.01199 31.32703 37993 ft 434 kts 291°
2026-04-21 18:07 42.03551 31.25277 37990 ft 433 kts 292°
2026-04-21 18:07 42.05911 31.17810 37975 ft 433 kts 291°
2026-04-21 18:08 42.08263 31.10341 37976 ft 433 kts 291°
2026-04-21 18:08 42.10598 31.02912 37974 ft 432 kts 291°
2026-04-21 18:09 42.12935 30.95449 37971 ft 434 kts 291°
2026-04-21 18:09 42.15271 30.87972 37971 ft 433 kts 291°
2026-04-21 18:10 42.17604 30.80482 37971 ft 433 kts 291°
2026-04-21 18:10 42.19913 30.73050 37974 ft 433 kts 291°
2026-04-21 18:11 42.22233 30.65561 37982 ft 434 kts 291°
2026-04-21 18:11 42.24548 30.58066 37978 ft 434 kts 291°
2026-04-21 18:12 42.26866 30.50542 37982 ft 432 kts 291°
2026-04-21 18:12 42.29165 30.43055 37986 ft 432 kts 291°
2026-04-21 18:13 42.31450 30.35597 37981 ft 432 kts 291°
2026-04-21 18:13 42.33747 30.28073 37990 ft 433 kts 291°
2026-04-21 18:14 42.37161 30.16856 37996 ft 431 kts 291°
2026-04-21 18:15 42.39439 30.09343 37994 ft 432 kts 291°
2026-04-21 18:15 42.41719 30.01801 37991 ft 431 kts 291°
2026-04-21 18:16 42.43974 29.94321 37991 ft 431 kts 291°
2026-04-21 18:16 42.46315 29.86853 37987 ft 431 kts 296°
2026-04-21 18:17 42.49728 29.80157 38000 ft 436 kts 306°
2026-04-21 18:17 42.53484 29.73742 37997 ft 436 kts 306°
2026-04-21 18:18 42.57185 29.67288 38004 ft 436 kts 305°
2026-04-21 18:18 42.60884 29.60754 38001 ft 434 kts 305°
2026-04-21 18:19 42.64549 29.54230 38000 ft 435 kts 305°
2026-04-21 18:19 42.68181 29.47732 38003 ft 434 kts 304°
2026-04-21 18:20 42.71831 29.41178 38001 ft 434 kts 305°
2026-04-21 18:20 42.75465 29.34636 38015 ft 436 kts 304°
2026-04-21 18:21 42.79090 29.28091 38007 ft 434 kts 304°
2026-04-21 18:21 42.82711 29.21539 38017 ft 436 kts 304°
2026-04-21 18:22 42.86373 29.14895 38017 ft 436 kts 304°
2026-04-21 18:22 42.89996 29.08311 38016 ft 435 kts 304°
2026-04-21 18:23 42.93628 29.01694 38019 ft 435 kts 304°
2026-04-21 18:23 42.97253 28.95075 38024 ft 436 kts 304°
2026-04-21 18:24 43.00869 28.88457 38030 ft 435 kts 304°
2026-04-21 18:24 43.04466 28.81860 38032 ft 436 kts 304°
2026-04-21 18:25 43.08087 28.75171 38026 ft 435 kts 303°
2026-04-21 18:25 43.11647 28.68534 38029 ft 434 kts 304°
2026-04-21 18:26 43.15220 28.61858 38028 ft 432 kts 304°
2026-04-21 18:26 43.18791 28.55173 38023 ft 434 kts 304°
2026-04-21 18:27 43.22345 28.48507 38027 ft 434 kts 303°
2026-04-21 18:27 43.25890 28.41844 38024 ft 435 kts 304°
2026-04-21 18:28 43.29471 28.35096 38028 ft 436 kts 304°
2026-04-21 18:28 43.33030 28.28375 38019 ft 434 kts 303°
2026-04-21 18:29 43.36564 28.21686 38034 ft 434 kts 303°
2026-04-21 18:29 43.40100 28.14978 38023 ft 434 kts 303°
2026-04-21 18:30 43.43646 28.08236 38021 ft 434 kts 303°
2026-04-21 18:30 43.47171 28.01519 38000 ft 434 kts 303°
2026-04-21 18:31 43.50695 27.94798 38022 ft 434 kts 303°
2026-04-21 18:31 43.54225 27.88037 37999 ft 432 kts 303°
2026-04-21 18:32 43.57722 27.81325 38011 ft 434 kts 303°
2026-04-21 18:32 43.61234 27.74570 38002 ft 432 kts 303°
2026-04-21 18:33 43.64737 27.67810 38004 ft 433 kts 303°
2026-04-21 18:33 43.68254 27.61013 38011 ft 433 kts 303°
2026-04-21 18:34 43.71744 27.54264 38002 ft 433 kts 303°
2026-04-21 18:34 43.75234 27.47495 38000 ft 432 kts 303°
2026-04-21 18:35 43.78115 27.41886 38010 ft 431 kts 303°
2026-04-21 18:35 43.82184 27.33950 38015 ft 431 kts 302°
2026-04-21 18:36 43.85647 27.27181 38015 ft 434 kts 302°
2026-04-21 18:36 43.89138 27.20341 38017 ft 432 kts 302°
2026-04-21 18:37 43.92601 27.13541 38015 ft 432 kts 302°
2026-04-21 18:37 43.96055 27.06742 38010 ft 431 kts 303°
2026-04-21 18:38 43.99528 26.99890 38024 ft 433 kts 302°
2026-04-21 18:38 44.02985 26.93053 38017 ft 431 kts 303°
2026-04-21 18:39 44.06415 26.86256 38018 ft 432 kts 302°
2026-04-21 18:39 44.09914 26.79422 38025 ft 433 kts 304°
2026-04-21 18:40 44.13504 26.72743 38015 ft 435 kts 304°
2026-04-21 18:40 44.16546 26.67059 38033 ft 435 kts 304°
2026-04-21 18:41 44.20735 26.59203 38033 ft 437 kts 304°
2026-04-21 18:41 44.24340 26.52416 38019 ft 435 kts 304°
2026-04-21 18:42 44.27937 26.45626 38032 ft 436 kts 304°
2026-04-21 18:42 44.31543 26.38798 38029 ft 435 kts 304°
2026-04-21 18:43 44.35137 26.31977 38026 ft 437 kts 303°
2026-04-21 18:43 44.38729 26.25146 38048 ft 438 kts 304°
2026-04-21 18:44 44.42342 26.18258 38034 ft 438 kts 304°
2026-04-21 18:44 44.45956 26.11344 38049 ft 439 kts 304°
2026-04-21 18:45 44.49546 26.04464 38035 ft 440 kts 304°
2026-04-21 18:45 44.53161 25.97530 38049 ft 440 kts 304°
2026-04-21 18:46 44.56766 25.90595 38052 ft 439 kts 304°
2026-04-21 18:46 44.60352 25.83679 38054 ft 440 kts 304°
2026-04-21 18:47 44.63938 25.76745 38040 ft 440 kts 304°
2026-04-21 18:47 44.67519 25.69802 38045 ft 441 kts 304°
2026-04-21 18:48 44.71123 25.62800 38034 ft 438 kts 304°
2026-04-21 18:48 44.74686 25.55857 38057 ft 442 kts 304°
2026-04-21 18:49 44.78264 25.48870 38037 ft 438 kts 304°
2026-04-21 18:49 44.81235 25.43056 38045 ft 441 kts 304°
2026-04-21 18:50 44.85405 25.34875 38037 ft 440 kts 303°
2026-04-21 18:50 44.88990 25.27822 38053 ft 441 kts 303°
2026-04-21 18:51 44.92551 25.20799 38048 ft 440 kts 303°
2026-04-21 18:51 44.96114 25.13757 38042 ft 441 kts 303°
2026-04-21 18:52 44.99662 25.06727 38032 ft 440 kts 303°
2026-04-21 18:52 45.03208 24.99681 38022 ft 440 kts 303°
2026-04-21 18:53 45.06772 24.92584 38023 ft 441 kts 303°
2026-04-21 18:53 45.10305 24.85530 38013 ft 440 kts 304°
2026-04-21 18:54 45.13857 24.78422 38008 ft 442 kts 304°
2026-04-21 18:54 45.17406 24.71302 38002 ft 440 kts 303°
2026-04-21 18:55 45.20322 24.65438 37985 ft 440 kts 304°
2026-04-21 18:55 45.24460 24.57095 37988 ft 443 kts 304°
2026-04-21 18:56 45.27992 24.49957 37991 ft 442 kts 304°
2026-04-21 18:56 45.31508 24.42832 37978 ft 442 kts 304°
2026-04-21 18:57 45.35027 24.35683 37960 ft 442 kts 304°
2026-04-21 18:57 45.38569 24.28466 37971 ft 444 kts 303°
2026-04-21 18:58 45.42093 24.21273 37979 ft 443 kts 303°
2026-04-21 18:58 45.45616 24.14061 37968 ft 445 kts 303°
2026-04-21 18:59 45.49144 24.06820 37956 ft 444 kts 303°
2026-04-21 18:59 45.52653 23.99601 37950 ft 443 kts 303°
2026-04-21 19:00 45.56173 23.92340 37956 ft 445 kts 303°
2026-04-21 19:00 45.59705 23.85036 37946 ft 446 kts 303°
2026-04-21 19:01 45.63229 23.77730 37946 ft 446 kts 303°
2026-04-21 19:01 45.66743 23.70426 37943 ft 446 kts 303°
2026-04-21 19:02 45.70250 23.63116 37957 ft 447 kts 303°
2026-04-21 19:02 45.73750 23.55805 37957 ft 446 kts 303°
2026-04-21 19:03 45.77251 23.48468 37949 ft 446 kts 303°
2026-04-21 19:03 45.80771 23.41076 37980 ft 447 kts 304°
2026-04-21 19:04 45.84257 23.33735 37991 ft 448 kts 303°
2026-04-21 19:04 45.87782 23.26293 38007 ft 448 kts 303°
2026-04-21 19:05 45.91253 23.18944 38009 ft 447 kts 303°
2026-04-21 19:05 45.94756 23.11509 38009 ft 449 kts 303°
2026-04-21 19:06 45.98223 23.04131 38000 ft 448 kts 303°
2026-04-21 19:06 46.01702 22.96709 37995 ft 447 kts 303°
2026-04-21 19:07 46.05183 22.89261 37996 ft 447 kts 303°
2026-04-21 19:07 46.08647 22.81831 38003 ft 448 kts 303°
2026-04-21 19:08 46.12131 22.74338 38010 ft 448 kts 303°
2026-04-21 19:08 46.15582 22.66895 38006 ft 449 kts 303°
2026-04-21 19:09 46.19055 22.59386 38001 ft 450 kts 303°
2026-04-21 19:09 46.22530 22.51853 37999 ft 449 kts 303°
2026-04-21 19:10 46.25986 22.44341 37995 ft 450 kts 303°
2026-04-21 19:10 46.29447 22.36796 38006 ft 450 kts 303°
2026-04-21 19:11 46.32907 22.29233 38019 ft 451 kts 302°
2026-04-21 19:11 46.36351 22.21687 38017 ft 450 kts 302°
2026-04-21 19:12 46.39216 22.15393 38022 ft 451 kts 302°
2026-04-21 19:12 46.43254 22.06498 38024 ft 451 kts 302°
2026-04-21 19:13 46.46684 21.98919 38034 ft 452 kts 302°
2026-04-21 19:13 46.50134 21.91276 38043 ft 451 kts 302°
2026-04-21 19:14 46.53555 21.83675 38044 ft 453 kts 302°
2026-04-21 19:14 46.57003 21.75994 38041 ft 453 kts 302°
2026-04-21 19:15 46.60426 21.68349 38040 ft 453 kts 302°
2026-04-21 19:15 46.63880 21.60611 38041 ft 453 kts 302°
2026-04-21 19:16 46.67311 21.52905 38039 ft 453 kts 302°
2026-04-21 19:16 46.70683 21.45190 38044 ft 455 kts 301°
2026-04-21 19:17 46.75641 21.33482 38043 ft 453 kts 301°
2026-04-21 19:17 46.78962 21.25625 38038 ft 453 kts 301°
2026-04-21 19:18 46.82258 21.17811 38046 ft 454 kts 301°
2026-04-21 19:18 46.85554 21.09979 38045 ft 454 kts 301°
2026-04-21 19:19 46.88869 21.02078 38054 ft 456 kts 301°
2026-04-21 19:19 46.92184 20.94156 38059 ft 455 kts 301°
2026-04-21 19:20 46.95455 20.86317 38063 ft 456 kts 301°
2026-04-21 19:20 46.98744 20.78412 38068 ft 456 kts 301°
2026-04-21 19:21 47.02042 20.70462 38068 ft 456 kts 301°
2026-04-21 19:21 47.05323 20.62533 38071 ft 457 kts 301°
2026-04-21 19:22 47.08612 20.54559 38074 ft 456 kts 301°
2026-04-21 19:22 47.11877 20.46622 38080 ft 457 kts 301°
2026-04-21 19:23 47.15168 20.38598 38082 ft 457 kts 301°
2026-04-21 19:23 47.18440 20.30596 38086 ft 458 kts 300°
2026-04-21 19:24 47.21724 20.22542 38088 ft 457 kts 300°
2026-04-21 19:24 47.25000 20.14483 38088 ft 457 kts 300°
2026-04-21 19:25 47.28250 20.06464 38090 ft 458 kts 300°
2026-04-21 19:25 47.31488 19.98449 38091 ft 458 kts 301°
2026-04-21 19:26 47.34748 19.90358 38091 ft 458 kts 301°
2026-04-21 19:26 47.37994 19.82280 38089 ft 458 kts 301°
2026-04-21 19:27 47.41219 19.74225 38091 ft 458 kts 301°
2026-04-21 19:27 47.44457 19.66118 38090 ft 459 kts 301°
2026-04-21 19:28 47.47708 19.57951 38093 ft 460 kts 301°
2026-04-21 19:28 47.50930 19.49835 38091 ft 460 kts 301°
2026-04-21 19:29 47.54171 19.41645 38093 ft 459 kts 301°
2026-04-21 19:29 47.57384 19.33500 38095 ft 459 kts 300°
2026-04-21 19:30 47.60601 19.25320 38095 ft 459 kts 300°
2026-04-21 19:30 47.63822 19.17107 38095 ft 460 kts 300°
2026-04-21 19:31 47.67030 19.08902 38089 ft 461 kts 300°
2026-04-21 19:31 47.70234 19.00680 38086 ft 462 kts 300°
2026-04-21 19:32 47.73457 18.92385 38087 ft 462 kts 300°
2026-04-21 19:32 47.76656 18.84129 38087 ft 461 kts 300°
2026-04-21 19:33 47.79987 18.75993 38090 ft 461 kts 308°
2026-04-21 19:33 47.84652 18.69457 38091 ft 463 kts 326°
2026-04-21 19:34 47.90135 18.64327 38096 ft 464 kts 327°
2026-04-21 19:34 47.95571 18.59247 38097 ft 464 kts 327°
2026-04-21 19:35 48.03823 18.51439 38104 ft 465 kts 327°
2026-04-21 19:36 48.09267 18.46250 38106 ft 465 kts 327°
2026-04-21 19:36 48.14734 18.41018 38117 ft 465 kts 327°
2026-04-21 19:37 48.20147 18.35821 38110 ft 465 kts 327°
2026-04-21 19:37 48.25598 18.30572 38118 ft 465 kts 326°
2026-04-21 19:38 48.30995 18.25361 38116 ft 465 kts 326°
2026-04-21 19:38 48.35532 18.20969 38122 ft 465 kts 326°
2026-04-21 19:39 48.41908 18.14780 38122 ft 465 kts 326°
2026-04-21 19:39 48.47336 18.09497 38131 ft 465 kts 326°
2026-04-21 19:40 48.52737 18.04227 38141 ft 466 kts 327°
2026-04-21 19:40 48.58184 17.98898 38140 ft 466 kts 327°
2026-04-21 19:41 48.63605 17.93581 38138 ft 466 kts 327°
2026-04-21 19:41 48.69040 17.88235 38142 ft 466 kts 327°
2026-04-21 19:42 48.74468 17.82883 38136 ft 465 kts 327°
2026-04-21 19:42 48.79879 17.77533 38144 ft 467 kts 327°
2026-04-21 19:43 48.85032 17.71565 38143 ft 465 kts 314°
2026-04-21 19:43 48.88748 17.63613 38151 ft 467 kts 298°
2026-04-21 19:44 48.91625 17.54758 38154 ft 468 kts 297°
2026-04-21 19:44 48.94469 17.45833 38157 ft 469 kts 297°
2026-04-21 19:45 48.97305 17.36869 38158 ft 470 kts 297°
2026-04-21 19:45 49.00129 17.27897 38160 ft 471 kts 296°
2026-04-21 19:46 49.02948 17.18901 38156 ft 469 kts 296°
2026-04-21 19:46 49.05757 17.09897 38160 ft 469 kts 296°
2026-04-21 19:47 49.08550 17.00915 38159 ft 469 kts 296°
2026-04-21 19:47 49.11306 16.92011 37948 ft 462 kts 296°
2026-04-21 19:47 49.12678 16.87571 37172 ft 468 kts 296°
2026-04-21 19:48 49.14077 16.83033 36302 ft 475 kts 296°
2026-04-21 19:48 49.15497 16.78421 35429 ft 482 kts 296°
2026-04-21 19:48 49.16929 16.73760 34518 ft 488 kts 296°
2026-04-21 19:48 49.18360 16.69093 33655 ft 492 kts 297°
2026-04-21 19:49 49.19818 16.64324 32814 ft 497 kts 297°
2026-04-21 19:49 49.21268 16.59576 31911 ft 503 kts 297°
2026-04-21 19:49 49.22761 16.54675 30954 ft 508 kts 297°
2026-04-21 19:49 49.24229 16.49849 30280 ft 504 kts 297°
2026-04-21 19:50 49.25206 16.46629 29866 ft 500 kts 297°
2026-04-21 19:50 49.27143 16.40233 29021 ft 494 kts 297°
2026-04-21 19:50 49.28579 16.35482 28410 ft 489 kts 297°
2026-04-21 19:50 49.30001 16.30768 27802 ft 484 kts 297°
2026-04-21 19:51 49.31395 16.26142 27205 ft 479 kts 297°
2026-04-21 19:51 49.32780 16.21534 26595 ft 474 kts 297°
2026-04-21 19:51 49.34156 16.16948 25985 ft 469 kts 297°
2026-04-21 19:51 49.35502 16.12453 25364 ft 465 kts 297°
2026-04-21 19:52 49.36842 16.07971 24753 ft 460 kts 297°
2026-04-21 19:52 49.38156 16.03567 24139 ft 455 kts 297°
2026-04-21 19:52 49.39457 15.99202 23519 ft 450 kts 297°
2026-04-21 19:52 49.40745 15.94870 22923 ft 445 kts 297°
2026-04-21 19:53 49.42096 15.90648 22334 ft 438 kts 300°
2026-04-21 19:53 49.43515 15.86547 21745 ft 433 kts 301°
2026-04-21 19:53 49.44925 15.82472 21152 ft 428 kts 301°
2026-04-21 19:53 49.46284 15.78523 20574 ft 423 kts 301°
2026-04-21 19:54 49.47647 15.74546 19994 ft 418 kts 300°
2026-04-21 19:54 49.48996 15.70596 19411 ft 413 kts 301°
2026-04-21 19:54 49.50323 15.66695 18831 ft 409 kts 301°
2026-04-21 19:54 49.51620 15.62874 18267 ft 405 kts 301°
2026-04-21 19:55 49.52908 15.59073 17700 ft 401 kts 300°
2026-04-21 19:55 49.54195 15.55264 17119 ft 397 kts 300°
2026-04-21 19:55 49.55442 15.51565 16557 ft 393 kts 301°
2026-04-21 19:55 49.56705 15.47816 15983 ft 390 kts 300°
2026-04-21 19:56 49.57946 15.44121 15422 ft 386 kts 301°
2026-04-21 19:56 49.59177 15.40453 14864 ft 382 kts 301°
2026-04-21 19:56 49.60389 15.36836 14306 ft 379 kts 301°
2026-04-21 19:56 49.61588 15.33254 13750 ft 376 kts 300°
2026-04-21 19:57 49.62783 15.29678 13191 ft 373 kts 300°
2026-04-21 19:57 49.63958 15.26156 12641 ft 370 kts 300°
2026-04-21 19:57 49.65116 15.22681 12085 ft 367 kts 300°
2026-04-21 19:57 49.66273 15.19202 11532 ft 364 kts 300°
2026-04-21 19:58 49.67424 15.15735 10964 ft 355 kts 300°
2026-04-21 19:58 49.68507 15.12466 10916 ft 330 kts 300°
2026-04-21 19:58 49.69532 15.09368 10872 ft 314 kts 300°
2026-04-21 19:58 49.70553 15.06503 10768 ft 300 kts 307°
2026-04-21 19:59 49.71762 15.03974 10629 ft 288 kts 311°
2026-04-21 19:59 49.72987 15.01548 10373 ft 283 kts 311°
2026-04-21 19:59 49.74185 14.99176 10198 ft 275 kts 311°
2026-04-21 19:59 49.75334 14.96887 10073 ft 266 kts 311°
2026-04-21 20:00 49.76463 14.94631 9772 ft 264 kts 311°
2026-04-21 20:00 49.77584 14.92395 9402 ft 265 kts 311°
2026-04-21 20:00 49.78709 14.90141 9054 ft 265 kts 311°
2026-04-21 20:00 49.79833 14.87889 8725 ft 264 kts 311°
2026-04-21 20:01 49.80952 14.85629 8400 ft 263 kts 311°
2026-04-21 20:01 49.82063 14.83376 8089 ft 262 kts 311°
2026-04-21 20:01 49.83164 14.81140 7771 ft 262 kts 311°
2026-04-21 20:01 49.84271 14.78892 7447 ft 261 kts 311°
2026-04-21 20:02 49.85001 14.77409 7235 ft 261 kts 311°
2026-04-21 20:02 49.86467 14.74433 6820 ft 260 kts 311°
2026-04-21 20:02 49.87552 14.72230 6511 ft 259 kts 311°
2026-04-21 20:02 49.88650 14.69996 6193 ft 259 kts 311°
2026-04-21 20:03 49.89745 14.67768 5887 ft 258 kts 311°
2026-04-21 20:03 49.90822 14.65578 5588 ft 257 kts 311°
2026-04-21 20:03 49.91906 14.63371 5284 ft 257 kts 311°
2026-04-21 20:03 49.92982 14.61181 5079 ft 252 kts 311°
2026-04-21 20:04 49.94017 14.59065 5018 ft 241 kts 311°
2026-04-21 20:04 49.95004 14.57051 4953 ft 233 kts 311°
2026-04-21 20:04 49.95970 14.55057 4863 ft 228 kts 310°
2026-04-21 20:04 49.96894 14.53069 4768 ft 218 kts 310°
2026-04-21 20:05 49.97771 14.51223 4679 ft 209 kts 311°
2026-04-21 20:05 49.98628 14.49466 4594 ft 199 kts 313°
2026-04-21 20:05 49.99459 14.47787 4362 ft 198 kts 313°
2026-04-21 20:05 50.00296 14.46092 4111 ft 197 kts 313°
2026-04-21 20:06 50.01123 14.44411 3854 ft 193 kts 313°
2026-04-21 20:06 50.01916 14.42787 3602 ft 182 kts 313°
2026-04-21 20:06 50.02664 14.41255 3365 ft 171 kts 313°
2026-04-21 20:06 50.03361 14.39829 3152 ft 158 kts 313°
2026-04-21 20:07 50.04010 14.38503 2963 ft 155 kts 313°
2026-04-21 20:07 50.04665 14.37157 2752 ft 158 kts 311°
2026-04-21 20:07 50.05106 14.36247 2598 ft 158 kts 313°
2026-04-21 20:07 50.05971 14.34517 2258 ft 147 kts 310°
2026-04-21 20:08 50.06578 14.33262 2038 ft 142 kts 309°
2026-04-21 20:08 50.07161 14.32027 1859 ft 139 kts 309°
2026-04-21 20:08 50.07753 14.30811 1692 ft 143 kts 308°
2026-04-21 20:08 50.08347 14.29589 1504 ft 143 kts 308°
2026-04-21 20:09 50.08947 14.28364 1312 ft 141 kts 308°
2026-04-21 20:09 50.09495 14.27236 1228 ft 108 kts 306°
2026-04-21 20:09 50.09843 14.26518 1218 ft 66 kts 307°
2026-04-21 20:09 50.10095 14.26000 1205 ft 53 kts 307°
2026-04-21 20:10 50.10243 14.25731 1195 ft 27 kts 326°
2026-04-21 20:10 50.10419 14.25658 1188 ft 21 kts
2026-04-21 20:10 50.10555 14.25733 1184 ft 20 kts 32°
2026-04-21 20:10 50.10672 14.25860 1182 ft 20 kts 36°
2026-04-21 20:11 50.10793 14.25991 1177 ft 20 kts 34°
2026-04-21 20:11 50.10867 14.26070 1175 ft 8 kts 34°
2026-04-21 20:11 50.10884 14.26117 1174 ft 4 kts 102°
2026-04-21 20:11 50.10865 14.26171 1175 ft 6 kts 122°
2026-04-21 20:12 50.10840 14.26235 1177 ft 7 kts 121°
2026-04-21 20:12 50.10818 14.26298 1179 ft 6 kts 118°
2026-04-21 20:12 50.10804 14.26336 1180 ft 5 kts 118°
2026-04-21 20:12 50.10800 14.26376 1182 ft 1 kts 73°
2026-04-21 20:13 50.10804 14.26384 1182 ft 1 kts 49°
2026-04-21 20:13 50.10821 14.26408 1182 ft 2 kts 35°
2026-04-21 20:13 50.10839 14.26427 1182 ft 2 kts 34°
2026-04-21 20:13 50.10845 14.26434 1182 ft 0 kts 34°